,,,PA_Meas_PMT16A,,PR_Meas_QMR101_102,,RH_Meas_QMH101,,SR_Meas_QMS101,,TA_Meas_QMH101,,GenWind,,GenWind,
date,time,status,PA,status,PR,status,RH,status,SR,status,TA,status,DirAvg,status,SpdAvg,
2011-12-21, 00:00:05,VALID,1001.03,VALID,0,VALID,85.6189,VALID,0.0815089,VALID,26.4861,VALID,346,VALID,1.00195,
2011-12-21, 00:01:05,VALID,1001.04,VALID,0,VALID,85.4663,VALID,0,VALID,26.4861,VALID,350,VALID,1.21992,
2011-12-21, 00:02:05,VALID,1001.04,VALID,0,VALID,85.4816,VALID,0,VALID,26.4667,VALID,345,VALID,0.621484,
2011-12-21, 00:03:05,VALID,1001,VALID,0,VALID,85.0239,VALID,0,VALID,26.4257,VALID,344,VALID,1.38711,
2011-12-21, 00:04:05,VALID,1001.02,VALID,0,VALID,85.3672,VALID,0,VALID,26.4472,VALID,360,VALID,1.05469,
2011-12-21, 00:05:05,VALID,1001.01,VALID,0,VALID,85.4969,VALID,0,VALID,26.4667,VALID,349,VALID,1.05938,
2011-12-21, 00:06:05,VALID,1001.01,VALID,0,VALID,85.2222,VALID,0,VALID,26.4472,VALID,330,VALID,0.483594,
2011-12-21, 00:07:05,VALID,1001.03,VALID,0,VALID,85.2451,VALID,0.0815089,VALID,26.4472,VALID,358,VALID,1.1832,
2011-12-21, 00:08:05,VALID,1001.02,VALID,0,VALID,84.6729,VALID,0,VALID,26.4277,VALID,350,VALID,1.16797,
2011-12-21, 00:09:05,VALID,1001.04,VALID,0,VALID,84.6195,VALID,0,VALID,26.4492,VALID,347,VALID,1.2957,
2011-12-21, 00:10:05,VALID,1001.04,VALID,0,VALID,84.8942,VALID,0,VALID,26.4277,VALID,350,VALID,1.29609,
2011-12-21, 00:11:05,VALID,1001.04,VALID,0,VALID,85.2375,VALID,0,VALID,26.3887,VALID,356,VALID,0.695313,
2011-12-21, 00:12:05,VALID,1001.02,VALID,0,VALID,85.268,VALID,0,VALID,26.3693,VALID,351,VALID,0.801172,
2011-12-21, 00:13:05,VALID,1000.99,VALID,0,VALID,84.7645,VALID,0.0815089,VALID,26.3303,VALID,342,VALID,1.44141,
2011-12-21, 00:14:05,VALID,1000.95,VALID,0,VALID,84.6195,VALID,0,VALID,26.3498,VALID,357,VALID,0.887891,
2011-12-21, 00:15:05,VALID,1000.91,VALID,0,VALID,84.5585,VALID,0,VALID,26.3498,VALID,347,VALID,1.26836,
2011-12-21, 00:16:05,VALID,1000.86,VALID,0,VALID,84.5051,VALID,0.0815089,VALID,26.3498,VALID,13,VALID,0.705859,
2011-12-21, 00:17:05,VALID,1000.8,VALID,0,VALID,84.2381,VALID,0,VALID,26.3713,VALID,344,VALID,0.741406,
2011-12-21, 00:18:05,VALID,1000.74,VALID,0,VALID,84.1542,VALID,0,VALID,26.3303,VALID,351,VALID,1.01094,
2011-12-21, 00:19:05,VALID,1000.75,VALID,0,VALID,83.8948,VALID,0,VALID,26.3518,VALID,343,VALID,1.05547,
2011-12-21, 00:20:05,VALID,1000.71,VALID,0,VALID,83.9101,VALID,0,VALID,26.3303,VALID,343,VALID,0.96875,
2011-12-21, 00:21:05,VALID,1000.71,VALID,0,VALID,84.0397,VALID,0.0815089,VALID,26.3303,VALID,345,VALID,1.00469,
2011-12-21, 00:22:05,VALID,1000.72,VALID,0,VALID,84.1694,VALID,0,VALID,26.3108,VALID,347,VALID,0.907422,
2011-12-21, 00:23:05,VALID,1000.74,VALID,0,VALID,84.5967,VALID,0,VALID,26.3108,VALID,9,VALID,0.800391,
2011-12-21, 00:24:05,VALID,1000.74,VALID,0,VALID,84.5433,VALID,0.0815089,VALID,26.2504,VALID,7,VALID,0.702344,
2011-12-21, 00:25:05,VALID,1000.72,VALID,0,VALID,84.94,VALID,0,VALID,26.2329,VALID,343,VALID,0.599609,
2011-12-21, 00:26:05,VALID,1000.73,VALID,0,VALID,84.2534,VALID,0,VALID,26.2134,VALID,9,VALID,1.28633,
2011-12-21, 00:27:05,VALID,1000.72,VALID,0,VALID,84.1618,VALID,0.0815089,VALID,26.2329,VALID,347,VALID,1.04258,
2011-12-21, 00:28:05,VALID,1000.72,VALID,0,VALID,84.1008,VALID,0,VALID,26.2524,VALID,352,VALID,1.45273,
2011-12-21, 00:29:05,VALID,1000.7,VALID,0,VALID,84.0855,VALID,0,VALID,26.2719,VALID,346,VALID,0.818359,
2011-12-21, 00:30:05,VALID,1000.71,VALID,0,VALID,83.6125,VALID,0,VALID,26.2544,VALID,351,VALID,0.765234,
2011-12-21, 00:31:05,VALID,1000.67,VALID,0,VALID,83.9635,VALID,0,VALID,26.2739,VALID,337,VALID,0.432813,
2011-12-21, 00:32:05,VALID,1000.66,VALID,0,VALID,83.9635,VALID,0,VALID,26.2739,VALID,359,VALID,0.790234,
2011-12-21, 00:33:05,VALID,1000.64,VALID,0,VALID,83.46,VALID,0,VALID,26.2739,VALID,346,VALID,0.830078,
2011-12-21, 00:34:05,VALID,1000.61,VALID,0,VALID,83.2387,VALID,0,VALID,26.2544,VALID,354,VALID,1.0793,
2011-12-21, 00:35:05,VALID,1000.61,VALID,0,VALID,82.9717,VALID,0,VALID,26.2544,VALID,342,VALID,1.56055,
2011-12-21, 00:36:05,VALID,1000.56,VALID,0,VALID,82.987,VALID,0,VALID,26.2953,VALID,346,VALID,0.975781,
2011-12-21, 00:37:05,VALID,1000.57,VALID,0,VALID,83.0098,VALID,0,VALID,26.2544,VALID,345,VALID,1.15586,
2011-12-21, 00:38:05,VALID,1000.54,VALID,0,VALID,83.0022,VALID,0,VALID,26.2544,VALID,338,VALID,0.841797,
2011-12-21, 00:39:05,VALID,1000.49,VALID,0,VALID,82.7047,VALID,0,VALID,26.2349,VALID,352,VALID,1.23906,
2011-12-21, 00:40:05,VALID,1000.44,VALID,0,VALID,83.109,VALID,0,VALID,26.2329,VALID,341,VALID,0.646484,
2011-12-21, 00:41:05,VALID,1000.43,VALID,0,VALID,82.9564,VALID,0,VALID,26.2544,VALID,348,VALID,0.910937,
2011-12-21, 00:42:05,VALID,1000.38,VALID,0,VALID,83.4065,VALID,0,VALID,26.2349,VALID,348,VALID,0.550781,
2011-12-21, 00:43:05,VALID,1000.34,VALID,0,VALID,83.376,VALID,0,VALID,26.2154,VALID,2,VALID,0.792969,
2011-12-21, 00:44:05,VALID,1000.33,VALID,0,VALID,83.3226,VALID,0,VALID,26.1959,VALID,350,VALID,0.987109,
2011-12-21, 00:45:05,VALID,1000.29,VALID,0,VALID,83.048,VALID,0,VALID,26.194,VALID,349,VALID,1.2332,
2011-12-21, 00:46:05,VALID,1000.26,VALID,0,VALID,82.9412,VALID,0.0815089,VALID,26.194,VALID,347,VALID,1.40039,
2011-12-21, 00:47:05,VALID,1000.24,VALID,0,VALID,83.0022,VALID,0,VALID,26.2329,VALID,339,VALID,0.633203,
2011-12-21, 00:48:05,VALID,1000.23,VALID,0,VALID,82.8496,VALID,0,VALID,26.2329,VALID,350,VALID,1.39648,
2011-12-21, 00:49:05,VALID,1000.2,VALID,0,VALID,82.8039,VALID,0,VALID,26.2524,VALID,349,VALID,1.22266,
2011-12-21, 00:50:05,VALID,1000.18,VALID,0,VALID,82.9717,VALID,0.0815089,VALID,26.2719,VALID,352,VALID,1.35664,
2011-12-21, 00:51:05,VALID,1000.15,VALID,0,VALID,82.9336,VALID,0,VALID,26.2913,VALID,344,VALID,0.216406,
2011-12-21, 00:52:05,VALID,1000.16,VALID,0,VALID,82.9107,VALID,0,VALID,26.3108,VALID,346,VALID,0.661719,
2011-12-21, 00:53:05,VALID,1000.1,VALID,0,VALID,82.8878,VALID,0,VALID,26.2913,VALID,360,VALID,0.617578,
2011-12-21, 00:54:05,VALID,1000.09,VALID,0,VALID,82.5292,VALID,0,VALID,26.2913,VALID,348,VALID,0.882031,
2011-12-21, 00:55:05,VALID,1000.07,VALID,0,VALID,82.6971,VALID,0.0815089,VALID,26.2894,VALID,344,VALID,0.975781,
2011-12-21, 00:56:05,VALID,1000.04,VALID,0,VALID,82.4453,VALID,0,VALID,26.3303,VALID,335,VALID,1.08789,
2011-12-21, 00:57:05,VALID,1000.01,VALID,0,VALID,82.3614,VALID,0,VALID,26.3498,VALID,345,VALID,0.556641,
2011-12-21, 00:58:05,VALID,1000,VALID,0,VALID,82.3004,VALID,0,VALID,26.3478,VALID,339,VALID,0.803906,
2011-12-21, 00:59:05,VALID,999.973,VALID,0,VALID,82.2241,VALID,0,VALID,26.3693,VALID,352,VALID,0.923437,
2011-12-21, 01:00:05,VALID,999.961,VALID,0,VALID,82.3766,VALID,0.0815089,VALID,26.3498,VALID,333,VALID,0.769531,
2011-12-21, 01:01:05,VALID,999.925,VALID,0,VALID,82.2698,VALID,0,VALID,26.3498,VALID,337,VALID,0.644141,
2011-12-21, 01:02:04,VALID,999.926,VALID,0,VALID,82.1936,VALID,0,VALID,26.3498,VALID,346,VALID,0.929688,
2011-12-21, 01:03:04,VALID,999.892,VALID,0,VALID,82.2698,VALID,0,VALID,26.3303,VALID,351,VALID,1.10664,
2011-12-21, 01:04:04,VALID,999.887,VALID,0,VALID,82.4758,VALID,0,VALID,26.3498,VALID,6,VALID,1.19258,
2011-12-21, 01:05:04,VALID,999.844,VALID,0,VALID,82.4835,VALID,0,VALID,26.3303,VALID,352,VALID,0.416016,
2011-12-21, 01:06:04,VALID,999.815,VALID,0,VALID,82.5292,VALID,0.0815089,VALID,26.3303,VALID,355,VALID,0.925391,
2011-12-21, 01:07:04,VALID,999.822,VALID,0,VALID,82.3614,VALID,0,VALID,26.3303,VALID,355,VALID,1.15859,
2011-12-21, 01:08:04,VALID,999.794,VALID,0,VALID,82.3232,VALID,0,VALID,26.3303,VALID,351,VALID,1.45938,
2011-12-21, 01:09:04,VALID,999.814,VALID,0,VALID,82.6665,VALID,0.0815089,VALID,26.3498,VALID,349,VALID,0.530078,
2011-12-21, 01:10:04,VALID,999.797,VALID,0,VALID,82.0715,VALID,0,VALID,26.3887,VALID,349,VALID,2.09687,
2011-12-21, 01:11:04,VALID,999.772,VALID,0,VALID,81.9647,VALID,0.0815089,VALID,26.3887,VALID,344,VALID,1.38828,
2011-12-21, 01:12:04,VALID,999.736,VALID,0,VALID,81.835,VALID,0.0815089,VALID,26.4082,VALID,350,VALID,1.63086,
2011-12-21, 01:13:04,VALID,999.702,VALID,0,VALID,81.9494,VALID,0.0815089,VALID,26.4277,VALID,313,VALID,1.38242,
2011-12-21, 01:14:04,VALID,999.711,VALID,0,VALID,81.9189,VALID,0,VALID,26.4472,VALID,348,VALID,2.25508,
2011-12-21, 01:15:04,VALID,999.704,VALID,0,VALID,81.9571,VALID,0,VALID,26.4472,VALID,351,VALID,1.76602,
2011-12-21, 01:16:04,VALID,999.709,VALID,0,VALID,81.835,VALID,0,VALID,26.4472,VALID,353,VALID,2.17461,
2011-12-21, 01:17:04,VALID,999.69,VALID,0,VALID,81.8274,VALID,0,VALID,26.4277,VALID,346,VALID,1.7082,
2011-12-21, 01:18:04,VALID,999.675,VALID,0,VALID,82.1554,VALID,0,VALID,26.4492,VALID,6,VALID,1.39883,
2011-12-21, 01:19:04,VALID,999.666,VALID,0,VALID,82.1783,VALID,0,VALID,26.4082,VALID,356,VALID,1.57656,
2011-12-21, 01:20:04,VALID,999.641,VALID,0,VALID,82.0105,VALID,0,VALID,26.4082,VALID,354,VALID,1.60977,
2011-12-21, 01:21:04,VALID,999.667,VALID,0,VALID,82.2393,VALID,0.0815089,VALID,26.3887,VALID,341,VALID,0.917188,
2011-12-21, 01:22:04,VALID,999.664,VALID,0,VALID,82.0791,VALID,0,VALID,26.3887,VALID,352,VALID,2.23516,
2011-12-21, 01:23:04,VALID,999.65,VALID,0,VALID,82.2546,VALID,0,VALID,26.3887,VALID,1,VALID,1.31055,
2011-12-21, 01:24:04,VALID,999.638,VALID,0,VALID,81.9952,VALID,0,VALID,26.4102,VALID,355,VALID,1.55625,
2011-12-21, 01:25:04,VALID,999.652,VALID,0,VALID,81.8503,VALID,0,VALID,26.3887,VALID,342,VALID,1.44648,
2011-12-21, 01:26:04,VALID,999.623,VALID,0,VALID,81.9418,VALID,0,VALID,26.3887,VALID,12,VALID,1.55039,
2011-12-21, 01:27:04,VALID,999.607,VALID,0,VALID,81.9189,VALID,0,VALID,26.4102,VALID,355,VALID,1.72773,
2011-12-21, 01:28:04,VALID,999.603,VALID,0,VALID,82.0181,VALID,0,VALID,26.3887,VALID,347,VALID,1.31836,
2011-12-21, 01:29:04,VALID,999.588,VALID,0,VALID,81.9418,VALID,0,VALID,26.3887,VALID,318,VALID,1.35273,
2011-12-21, 01:30:04,VALID,999.609,VALID,0,VALID,82.0105,VALID,0,VALID,26.4102,VALID,349,VALID,0.986328,
2011-12-21, 01:31:04,VALID,999.592,VALID,0,VALID,82.0868,VALID,0,VALID,26.3907,VALID,354,VALID,1.09727,
2011-12-21, 01:32:04,VALID,999.583,VALID,0,VALID,82.1096,VALID,0,VALID,26.3498,VALID,345,VALID,1.12031,
2011-12-21, 01:33:04,VALID,999.563,VALID,0,VALID,81.6672,VALID,0,VALID,26.3498,VALID,348,VALID,2.29102,
2011-12-21, 01:34:04,VALID,999.54,VALID,0,VALID,81.7969,VALID,0,VALID,26.3693,VALID,358,VALID,1.39102,
2011-12-21, 01:35:04,VALID,999.58,VALID,0,VALID,82.1325,VALID,0,VALID,26.3693,VALID,347,VALID,0.596484,
2011-12-21, 01:36:04,VALID,999.583,VALID,0,VALID,81.8808,VALID,0,VALID,26.3907,VALID,340,VALID,1.42148,
2011-12-21, 01:37:04,VALID,999.538,VALID,0,VALID,81.9037,VALID,0,VALID,26.3907,VALID,348,VALID,1.94062,
2011-12-21, 01:38:04,VALID,999.565,VALID,0,VALID,81.7816,VALID,0.0815089,VALID,26.3907,VALID,338,VALID,1.6375,
2011-12-21, 01:39:04,VALID,999.574,VALID,0,VALID,81.8045,VALID,0.0815089,VALID,26.3887,VALID,355,VALID,2.6168,
2011-12-21, 01:40:04,VALID,999.569,VALID,0,VALID,81.7969,VALID,0,VALID,26.4082,VALID,346,VALID,1.39883,
2011-12-21, 01:41:04,VALID,999.536,VALID,0,VALID,81.5909,VALID,0.0815089,VALID,26.4082,VALID,4,VALID,2.20078,
2011-12-21, 01:42:04,VALID,999.531,VALID,0,VALID,81.6443,VALID,0,VALID,26.4082,VALID,350,VALID,1.34219,
2011-12-21, 01:43:04,VALID,999.525,VALID,0,VALID,81.5985,VALID,0,VALID,26.4082,VALID,349,VALID,1.88477,
2011-12-21, 01:44:04,VALID,999.524,VALID,0,VALID,81.629,VALID,0,VALID,26.4082,VALID,353,VALID,1.93633,
2011-12-21, 01:45:04,VALID,999.493,VALID,0,VALID,81.4993,VALID,0.0815089,VALID,26.4082,VALID,350,VALID,1.66914,
2011-12-21, 01:46:04,VALID,999.501,VALID,0,VALID,81.0416,VALID,0.0815089,VALID,26.4102,VALID,340,VALID,1.39219,
2011-12-21, 01:47:04,VALID,999.516,VALID,0,VALID,81.4917,VALID,0.0815089,VALID,26.3887,VALID,349,VALID,1.43203,
2011-12-21, 01:48:04,VALID,999.451,VALID,0,VALID,81.5375,VALID,0.0815089,VALID,26.3693,VALID,342,VALID,1.02734,
2011-12-21, 01:49:04,VALID,999.472,VALID,0,VALID,81.0187,VALID,0,VALID,26.4102,VALID,350,VALID,1.42578,
2011-12-21, 01:50:04,VALID,999.445,VALID,0,VALID,81.2705,VALID,0,VALID,26.3693,VALID,355,VALID,1.55703,
2011-12-21, 01:51:04,VALID,999.404,VALID,0,VALID,81.568,VALID,0,VALID,26.3693,VALID,356,VALID,0.927734,
2011-12-21, 01:52:04,VALID,999.406,VALID,0,VALID,81.5909,VALID,0,VALID,26.3498,VALID,1,VALID,1.23555,
2011-12-21, 01:53:04,VALID,999.401,VALID,0,VALID,81.7816,VALID,0.0815089,VALID,26.3303,VALID,319,VALID,0.924609,
2011-12-21, 01:54:04,VALID,999.395,VALID,0,VALID,82.2012,VALID,0.0815089,VALID,26.3108,VALID,315,VALID,0.923828,
2011-12-21, 01:55:04,VALID,999.352,VALID,0,VALID,81.9952,VALID,0,VALID,26.2719,VALID,351,VALID,2.05703,
2011-12-21, 01:56:04,VALID,999.35,VALID,0,VALID,82.163,VALID,0.0815089,VALID,26.2524,VALID,341,VALID,1.31016,
2011-12-21, 01:57:04,VALID,999.317,VALID,0,VALID,82.4758,VALID,0.0815089,VALID,26.2329,VALID,348,VALID,1.67813,
2011-12-21, 01:58:04,VALID,999.318,VALID,0,VALID,82.5521,VALID,0,VALID,26.2134,VALID,354,VALID,1.65117,
2011-12-21, 01:59:04,VALID,999.312,VALID,0,VALID,82.4529,VALID,0,VALID,26.194,VALID,345,VALID,0.992969,
2011-12-21, 02:00:04,VALID,999.283,VALID,0,VALID,82.6971,VALID,0.0815089,VALID,26.194,VALID,347,VALID,1.51172,
2011-12-21, 02:01:04,VALID,999.267,VALID,0,VALID,82.5445,VALID,0.0815089,VALID,26.1745,VALID,347,VALID,1.92031,
2011-12-21, 02:02:04,VALID,999.243,VALID,0,VALID,82.3004,VALID,0,VALID,26.155,VALID,350,VALID,0.747266,
2011-12-21, 02:03:04,VALID,999.228,VALID,0,VALID,82.2546,VALID,0,VALID,26.1745,VALID,351,VALID,1.82539,
2011-12-21, 02:04:04,VALID,999.225,VALID,0,VALID,82.5445,VALID,0,VALID,26.155,VALID,350,VALID,1.61367,
2011-12-21, 02:05:04,VALID,999.197,VALID,0,VALID,81.9113,VALID,0.0815089,VALID,26.1745,VALID,347,VALID,1.29688,
2011-12-21, 02:06:04,VALID,999.206,VALID,0,VALID,81.8503,VALID,0.0815089,VALID,26.1745,VALID,355,VALID,1.27031,
2011-12-21, 02:07:04,VALID,999.16,VALID,0,VALID,81.301,VALID,0.0815089,VALID,26.194,VALID,348,VALID,2.06016,
2011-12-21, 02:08:04,VALID,999.191,VALID,0,VALID,81.1942,VALID,0.0815089,VALID,26.2524,VALID,345,VALID,1.1332,
2011-12-21, 02:09:04,VALID,999.153,VALID,0,VALID,81.2171,VALID,0.0815089,VALID,26.2524,VALID,328,VALID,0.753516,
2011-12-21, 02:10:04,VALID,999.152,VALID,0,VALID,80.7746,VALID,0.0815089,VALID,26.2504,VALID,353,VALID,1.47031,
2011-12-21, 02:11:04,VALID,999.125,VALID,0,VALID,80.9195,VALID,0.0815089,VALID,26.3323,VALID,354,VALID,0.915234,
2011-12-21, 02:12:04,VALID,999.129,VALID,0,VALID,80.6449,VALID,0.0815089,VALID,26.3498,VALID,327,VALID,0.908203,
2011-12-21, 02:13:04,VALID,999.128,VALID,0,VALID,80.7517,VALID,0.0815089,VALID,26.3498,VALID,297,VALID,0.746875,
2011-12-21, 02:14:04,VALID,999.123,VALID,0,VALID,80.416,VALID,0.0815089,VALID,26.3303,VALID,336,VALID,0.816406,
2011-12-21, 02:15:04,VALID,999.119,VALID,0,VALID,80.889,VALID,0.0815089,VALID,26.3498,VALID,345,VALID,0.55,
2011-12-21, 02:16:04,VALID,999.134,VALID,0,VALID,80.416,VALID,0,VALID,26.3108,VALID,350,VALID,0.969141,
2011-12-21, 02:17:04,VALID,999.119,VALID,0,VALID,80.4618,VALID,0.0815089,VALID,26.3108,VALID,348,VALID,1.11797,
2011-12-21, 02:18:04,VALID,999.127,VALID,0,VALID,80.3703,VALID,0.0815089,VALID,26.3108,VALID,334,VALID,0.779688,
2011-12-21, 02:19:04,VALID,999.131,VALID,0,VALID,80.4847,VALID,0.0815089,VALID,26.3108,VALID,346,VALID,0.944141,
2011-12-21, 02:20:04,VALID,999.129,VALID,0,VALID,80.4084,VALID,0.0815089,VALID,26.2913,VALID,352,VALID,0.830859,
2011-12-21, 02:21:04,VALID,999.097,VALID,0,VALID,80.1719,VALID,0.0815089,VALID,26.3128,VALID,351,VALID,1.2707,
2011-12-21, 02:22:04,VALID,999.133,VALID,0,VALID,80.2558,VALID,0.0815089,VALID,26.2913,VALID,343,VALID,1.69375,
2011-12-21, 02:23:04,VALID,999.092,VALID,0,VALID,80.2329,VALID,0.0815089,VALID,26.2913,VALID,346,VALID,1.08164,
2011-12-21, 02:24:04,VALID,999.107,VALID,0,VALID,80.3016,VALID,0.0815089,VALID,26.3128,VALID,351,VALID,0.882422,
2011-12-21, 02:25:04,VALID,999.096,VALID,0,VALID,80.2406,VALID,0,VALID,26.2913,VALID,342,VALID,1.1543,
2011-12-21, 02:26:04,VALID,999.117,VALID,0,VALID,80.2711,VALID,0,VALID,26.2933,VALID,345,VALID,1.10547,
2011-12-21, 02:27:04,VALID,999.099,VALID,0,VALID,80.2482,VALID,0,VALID,26.2524,VALID,352,VALID,1.30391,
2011-12-21, 02:28:04,VALID,999.11,VALID,0,VALID,79.9964,VALID,0,VALID,26.2309,VALID,357,VALID,0.935938,
2011-12-21, 02:29:04,VALID,999.112,VALID,0,VALID,80.9348,VALID,0.0815089,VALID,26.2524,VALID,341,VALID,0.613281,
2011-12-21, 02:30:04,VALID,999.108,VALID,0,VALID,80.1795,VALID,0.0815089,VALID,26.2739,VALID,349,VALID,0.984766,
2011-12-21, 02:31:04,VALID,999.089,VALID,0,VALID,80.1643,VALID,0,VALID,26.2329,VALID,355,VALID,1.20938,
2011-12-21, 02:32:04,VALID,999.068,VALID,0,VALID,79.8973,VALID,0,VALID,26.2739,VALID,346,VALID,1.71523,
2011-12-21, 02:33:04,VALID,999.096,VALID,0,VALID,80.21,VALID,0,VALID,26.2544,VALID,348,VALID,0.564062,
2011-12-21, 02:34:04,VALID,999.079,VALID,0,VALID,79.9659,VALID,0.0815089,VALID,26.2114,VALID,351,VALID,1.16953,
2011-12-21, 02:35:04,VALID,999.037,VALID,0,VALID,80.1872,VALID,0.0815089,VALID,26.2524,VALID,348,VALID,0.793359,
2011-12-21, 02:36:04,VALID,999.059,VALID,0,VALID,80.1719,VALID,0.0815089,VALID,26.2114,VALID,345,VALID,0.878516,
2011-12-21, 02:37:04,VALID,999.058,VALID,0,VALID,80.355,VALID,0,VALID,26.2329,VALID,356,VALID,0.642578,
2011-12-21, 02:38:04,VALID,999.074,VALID,0,VALID,80.294,VALID,0,VALID,26.2134,VALID,355,VALID,1.59063,
2011-12-21, 02:39:04,VALID,999.097,VALID,0,VALID,80.3779,VALID,0.0815089,VALID,26.2134,VALID,334,VALID,0.724609,
2011-12-21, 02:40:04,VALID,999.11,VALID,0,VALID,80.2024,VALID,0.0815089,VALID,26.2114,VALID,348,VALID,1.24453,
2011-12-21, 02:41:04,VALID,999.124,VALID,0,VALID,80.0117,VALID,0,VALID,26.2329,VALID,340,VALID,1.35352,
2011-12-21, 02:42:04,VALID,999.112,VALID,0,VALID,80.0041,VALID,0.0815089,VALID,26.2329,VALID,346,VALID,1.33477,
2011-12-21, 02:43:04,VALID,999.137,VALID,0,VALID,80.0498,VALID,0,VALID,26.2524,VALID,322,VALID,0.882813,
2011-12-21, 02:44:04,VALID,999.161,VALID,0,VALID,80.3245,VALID,0.0815089,VALID,26.2524,VALID,353,VALID,0.861719,
2011-12-21, 02:45:04,VALID,999.175,VALID,0,VALID,80.6449,VALID,0,VALID,26.2329,VALID,335,VALID,0.477734,
2011-12-21, 02:46:04,VALID,999.197,VALID,0,VALID,79.9964,VALID,0,VALID,26.2544,VALID,342,VALID,0.98125,
2011-12-21, 02:47:04,VALID,999.196,VALID,0,VALID,80.1414,VALID,0.0815089,VALID,26.2524,VALID,349,VALID,0.823828,
2011-12-21, 02:48:04,VALID,999.233,VALID,0,VALID,79.9125,VALID,0.0815089,VALID,26.2524,VALID,343,VALID,1.3582,
2011-12-21, 02:49:04,VALID,999.254,VALID,0,VALID,80.088,VALID,0.0815089,VALID,26.2719,VALID,360,VALID,0.935156,
2011-12-21, 02:50:04,VALID,999.277,VALID,0,VALID,79.9888,VALID,0.0815089,VALID,26.2719,VALID,346,VALID,1.03867,
2011-12-21, 02:51:04,VALID,999.296,VALID,0,VALID,80.5228,VALID,0.0815089,VALID,26.2913,VALID,352,VALID,0.701563,
2011-12-21, 02:52:04,VALID,999.332,VALID,0,VALID,80.21,VALID,0.0815089,VALID,26.2913,VALID,347,VALID,0.540234,
2011-12-21, 02:53:04,VALID,999.349,VALID,0,VALID,80.149,VALID,0.0815089,VALID,26.2699,VALID,338,VALID,1.17773,
2011-12-21, 02:54:04,VALID,999.395,VALID,0,VALID,80.2406,VALID,0,VALID,26.2699,VALID,323,VALID,0.385156,
2011-12-21, 02:55:04,VALID,999.411,VALID,0,VALID,80.0498,VALID,0.0815089,VALID,26.2913,VALID,308,VALID,0.105859,
2011-12-21, 02:56:04,VALID,999.416,VALID,0,VALID,80.3855,VALID,0.0815089,VALID,26.3108,VALID,317,VALID,0.158203,
2011-12-21, 02:57:04,VALID,999.419,VALID,0,VALID,80.3779,VALID,0.0815089,VALID,26.3108,VALID,276,VALID,0.777734,
2011-12-21, 02:58:04,VALID,999.399,VALID,0,VALID,79.9659,VALID,0.0815089,VALID,26.3108,VALID,267,VALID,0.503125,
2011-12-21, 02:59:04,VALID,999.394,VALID,0,VALID,79.8439,VALID,0.0815089,VALID,26.3108,VALID,287,VALID,0.808984,
2011-12-21, 03:00:04,VALID,999.368,VALID,0,VALID,79.8973,VALID,0.0815089,VALID,26.3108,VALID,287,VALID,0.0902344,
2011-12-21, 03:01:04,VALID,999.36,VALID,0,VALID,80.1948,VALID,0.0815089,VALID,26.3303,VALID,288,VALID,0.0644531,
2011-12-21, 03:02:04,VALID,999.343,VALID,0,VALID,80.7212,VALID,0.0815089,VALID,26.3303,VALID,346,VALID,0.301562,
2011-12-21, 03:03:04,VALID,999.335,VALID,0,VALID,80.1185,VALID,0.0815089,VALID,26.3108,VALID,357,VALID,0.616016,
2011-12-21, 03:04:04,VALID,999.347,VALID,0,VALID,80.0422,VALID,0,VALID,26.3128,VALID,349,VALID,1.07422,
2011-12-21, 03:05:04,VALID,999.33,VALID,0,VALID,80.1261,VALID,0,VALID,26.3108,VALID,338,VALID,0.991797,
2011-12-21, 03:06:04,VALID,999.327,VALID,0,VALID,80.21,VALID,0,VALID,26.3128,VALID,342,VALID,0.627344,
2011-12-21, 03:07:04,VALID,999.316,VALID,0,VALID,80.4771,VALID,0,VALID,26.2913,VALID,347,VALID,0.867188,
2011-12-21, 03:08:04,VALID,999.299,VALID,0,VALID,80.4694,VALID,0,VALID,26.2719,VALID,335,VALID,0.736719,
2011-12-21, 03:09:04,VALID,999.258,VALID,0,VALID,80.767,VALID,0.0815089,VALID,26.2933,VALID,356,VALID,1.12188,
2011-12-21, 03:10:04,VALID,999.237,VALID,0,VALID,80.2635,VALID,0.0815089,VALID,26.2913,VALID,348,VALID,1.29805,
2011-12-21, 03:11:04,VALID,999.193,VALID,0,VALID,80.1566,VALID,0.0815089,VALID,26.3303,VALID,338,VALID,0.900781,
2011-12-21, 03:12:04,VALID,999.215,VALID,0,VALID,80.027,VALID,0.0815089,VALID,26.3088,VALID,325,VALID,1.15156,
2011-12-21, 03:13:04,VALID,999.18,VALID,0,VALID,80.3245,VALID,0.0815089,VALID,26.3498,VALID,348,VALID,0.899609,
2011-12-21, 03:14:04,VALID,999.2,VALID,0,VALID,80.3321,VALID,0.0815089,VALID,26.3303,VALID,351,VALID,0.569141,
2011-12-21, 03:15:04,VALID,999.191,VALID,0,VALID,80.0498,VALID,0,VALID,26.3303,VALID,349,VALID,1.16719,
2011-12-21, 03:16:04,VALID,999.196,VALID,0,VALID,79.8362,VALID,0.0815089,VALID,26.3303,VALID,345,VALID,1.93086,
2011-12-21, 03:17:04,VALID,999.199,VALID,0,VALID,79.9049,VALID,0,VALID,26.3887,VALID,341,VALID,0.875,
2011-12-21, 03:18:04,VALID,999.199,VALID,0,VALID,80.0117,VALID,0.0815089,VALID,26.3887,VALID,356,VALID,1.01055,
2011-12-21, 03:19:04,VALID,999.21,VALID,0,VALID,79.7981,VALID,0.0815089,VALID,26.3887,VALID,344,VALID,0.81875,
2011-12-21, 03:20:04,VALID,999.156,VALID,0,VALID,80.2406,VALID,0,VALID,26.4297,VALID,1,VALID,0.774219,
2011-12-21, 03:21:04,VALID,999.191,VALID,0,VALID,80.1414,VALID,0.0815089,VALID,26.3673,VALID,10,VALID,0.328125,
2011-12-21, 03:22:04,VALID,999.196,VALID,0,VALID,80.4694,VALID,0.0815089,VALID,26.3693,VALID,10,VALID,0.226172,
2011-12-21, 03:23:04,VALID,999.224,VALID,0,VALID,80.9882,VALID,0.0815089,VALID,26.3673,VALID,344,VALID,1.24922,
2011-12-21, 03:24:04,VALID,999.223,VALID,0,VALID,81.1103,VALID,0.0815089,VALID,26.3887,VALID,337,VALID,0.435156,
2011-12-21, 03:25:04,VALID,999.247,VALID,0,VALID,80.7288,VALID,0.0815089,VALID,26.4277,VALID,7,VALID,0.253516,
2011-12-21, 03:26:04,VALID,999.281,VALID,0,VALID,81.0569,VALID,0.0815089,VALID,26.4277,VALID,287,VALID,0.180469,
2011-12-21, 03:27:04,VALID,999.289,VALID,0,VALID,80.8127,VALID,0,VALID,26.4277,VALID,340,VALID,0.0753906,
2011-12-21, 03:28:04,VALID,999.332,VALID,0,VALID,80.561,VALID,0.0815089,VALID,26.4277,VALID,264,VALID,0.492969,
2011-12-21, 03:29:04,VALID,999.338,VALID,0,VALID,80.4771,VALID,0.0815089,VALID,26.4062,VALID,279,VALID,0.305469,
2011-12-21, 03:30:04,VALID,999.359,VALID,0,VALID,80.4999,VALID,0.0815089,VALID,26.4277,VALID,279,VALID,0.185937,
2011-12-21, 03:31:04,VALID,999.379,VALID,0,VALID,80.6373,VALID,0,VALID,26.4277,VALID,279,VALID,0.247266,
2011-12-21, 03:32:04,VALID,999.399,VALID,0,VALID,80.3397,VALID,0.0815089,VALID,26.4277,VALID,279,VALID,0.238281,
2011-12-21, 03:33:04,VALID,999.384,VALID,0,VALID,80.2787,VALID,0.0815089,VALID,26.4082,VALID,279,VALID,0.266406,
2011-12-21, 03:34:04,VALID,999.417,VALID,0,VALID,80.3931,VALID,0,VALID,26.4082,VALID,279,VALID,0,
2011-12-21, 03:35:04,VALID,999.455,VALID,0,VALID,80.3245,VALID,0,VALID,26.4082,VALID,279,VALID,0.335156,
2011-12-21, 03:36:04,VALID,999.512,VALID,0,VALID,80.416,VALID,0.0815089,VALID,26.3887,VALID,279,VALID,0.310937,
2011-12-21, 03:37:04,VALID,999.502,VALID,0,VALID,80.7822,VALID,0.0815089,VALID,26.3887,VALID,279,VALID,0.180469,
2011-12-21, 03:38:04,VALID,999.551,VALID,0,VALID,80.622,VALID,0,VALID,26.3303,VALID,279,VALID,0.362891,